| time (UTC) | temp F | wind direction | speed MPH | gust MPH | rain 1hr in | rain 24hr in | rain mn in | humidity % | barometer mb |
| 20260902191859 | 73 | 110 | 6.0 | 0.0 | 0.00 | 0.00 | 0.00 | 61 | 1017.0 |
| 20260902190400 | 73 | 110 | 6.0 | 0.0 | 0.00 | 0.00 | 0.00 | 61 | 1017.0 |
| 20260902184900 | 77 | 110 | 9.0 | 0.0 | 0.00 | 0.00 | 0.00 | 54 | 1017.0 |
| 20260902183359 | 77 | 110 | 9.0 | 0.0 | 0.00 | 0.00 | 0.00 | 54 | 1017.0 |
| 20260902181900 | 77 | 110 | 9.0 | 0.0 | 0.00 | 0.00 | 0.00 | 54 | 1017.0 |
| 20260902180400 | 77 | 110 | 9.0 | 0.0 | 0.00 | 0.00 | 0.00 | 54 | 1017.0 |
| 20260902174900 | 82 | 90 | 11.0 | 0.0 | 0.00 | 0.00 | 0.00 | 45 | 1016.0 |
| 20260902173359 | 82 | 90 | 11.0 | 0.0 | 0.00 | 0.00 | 0.00 | 45 | 1016.0 |
| 20260902171900 | 82 | 90 | 11.0 | 0.0 | 0.00 | 0.00 | 0.00 | 45 | 1016.0 |
| 20260902170400 | 82 | 90 | 11.0 | 0.0 | 0.00 | 0.00 | 0.00 | 45 | 1016.0 |
| 20260902165021 | 0 | 0.0 | 0.0 | 0.00 | 0.00 | 0.00 | |||
| 20260902163359 | 86 | 70 | 11.0 | 0.0 | 0.00 | 0.00 | 0.00 | 38 | 1016.0 |
| 20260902161900 | 86 | 70 | 11.0 | 0.0 | 0.00 | 0.00 | 0.00 | 38 | 1016.0 |
| 20260902160410 | 86 | 70 | 11.0 | 0.0 | 0.00 | 0.00 | 0.00 | 38 | 1016.0 |
| 20260902154900 | 88 | 40 | 11.0 | 0.0 | 0.00 | 0.00 | 0.00 | 38 | 1016.0 |
| 20260902153359 | 88 | 40 | 11.0 | 0.0 | 0.00 | 0.00 | 0.00 | 38 | 1016.0 |
| 20260902151859 | 88 | 40 | 11.0 | 0.0 | 0.00 | 0.00 | 0.00 | 38 | 1016.0 |
| 20260902150400 | 88 | 40 | 11.0 | 0.0 | 0.00 | 0.00 | 0.00 | 38 | 1016.0 |
| 20260902144900 | 88 | 340 | 6.0 | 0.0 | 0.00 | 0.00 | 0.00 | 35 | 1017.0 |
| 20260902143400 | 88 | 340 | 6.0 | 0.0 | 0.00 | 0.00 | 0.00 | 35 | 1017.0 |
| 20260902141857 | 88 | 340 | 6.0 | 0.0 | 0.00 | 0.00 | 0.00 | 35 | 1017.0 |
| 20260902140400 | 88 | 340 | 6.0 | 0.0 | 0.00 | 0.00 | 0.00 | 35 | 1017.0 |
| 20260902134900 | 88 | 60 | 9.0 | 0.0 | 0.00 | 0.00 | 0.00 | 35 | 1017.0 |
| 20260902133359 | 88 | 60 | 9.0 | 0.0 | 0.00 | 0.00 | 0.00 | 35 | 1017.0 |
| 20260902131859 | 88 | 60 | 9.0 | 0.0 | 0.00 | 0.00 | 0.00 | 35 | 1017.0 |
| 20260902130400 | 0 | 0.0 | 0.0 | 0.00 | 0.00 | 0.00 | |||
| 20260902124902 | 88 | 90 | 6.0 | 0.0 | 0.00 | 0.00 | 0.00 | 35 | 1018.0 |
| 20260902123400 | 88 | 90 | 6.0 | 0.0 | 0.00 | 0.00 | 0.00 | 35 | 1018.0 |
| 20260902121901 | 88 | 90 | 6.0 | 0.0 | 0.00 | 0.00 | 0.00 | 35 | 1018.0 |
| 20260902120400 | 88 | 90 | 6.0 | 0.0 | 0.00 | 0.00 | 0.00 | 35 | 1018.0 |
| 20260902114859 | 86 | 360 | 9.0 | 0.0 | 0.00 | 0.00 | 0.00 | 38 | 1018.0 |
| 20260902113400 | 86 | 360 | 9.0 | 0.0 | 0.00 | 0.00 | 0.00 | 38 | 1018.0 |
| 20260902111857 | 86 | 360 | 9.0 | 0.0 | 0.00 | 0.00 | 0.00 | 38 | 1018.0 |
| 20260902110400 | 86 | 360 | 9.0 | 0.0 | 0.00 | 0.00 | 0.00 | 38 | 1018.0 |
| 20260902104900 | 86 | 20 | 11.0 | 0.0 | 0.00 | 0.00 | 0.00 | 40 | 1019.0 |
| 20260902103359 | 86 | 20 | 11.0 | 0.0 | 0.00 | 0.00 | 0.00 | 40 | 1019.0 |
| 20260902101900 | 86 | 20 | 11.0 | 0.0 | 0.00 | 0.00 | 0.00 | 40 | 1019.0 |
| 20260902100406 | 86 | 20 | 11.0 | 0.0 | 0.00 | 0.00 | 0.00 | 40 | 1019.0 |
| 20260902094859 | 84 | 100 | 6.0 | 0.0 | 0.00 | 0.00 | 0.00 | 43 | 1019.0 |
| 20260902093359 | 84 | 100 | 6.0 | 0.0 | 0.00 | 0.00 | 0.00 | 43 | 1019.0 |
| 20260902091900 | 84 | 100 | 6.0 | 0.0 | 0.00 | 0.00 | 0.00 | 43 | 1019.0 |
| 20260902090509 | 0 | 0.0 | 0.0 | 0.00 | 0.00 | 0.00 | |||
| 20260902084859 | 81 | 90 | 9.0 | 0.0 | 0.00 | 0.00 | 0.00 | 48 | 1019.0 |
| 20260902083400 | 81 | 90 | 9.0 | 0.0 | 0.00 | 0.00 | 0.00 | 48 | 1019.0 |
| 20260902081900 | 81 | 90 | 9.0 | 0.0 | 0.00 | 0.00 | 0.00 | 48 | 1019.0 |
| 20260902080400 | 81 | 90 | 9.0 | 0.0 | 0.00 | 0.00 | 0.00 | 48 | 1019.0 |
| 20260902074936 | 75 | 30 | 11.0 | 0.0 | 0.00 | 0.00 | 0.00 | 61 | 1019.0 |
| 20260902073400 | 75 | 30 | 11.0 | 0.0 | 0.00 | 0.00 | 0.00 | 61 | 1019.0 |
| 20260902071857 | 75 | 30 | 11.0 | 0.0 | 0.00 | 0.00 | 0.00 | 61 | 1019.0 |
| 20260902070359 | 75 | 30 | 11.0 | 0.0 | 0.00 | 0.00 | 0.00 | 61 | 1019.0 |
| 20260902064857 | 72 | 40 | 11.0 | 0.0 | 0.00 | 0.00 | 0.00 | 69 | 1019.0 |
| 20260902063400 | 72 | 40 | 11.0 | 0.0 | 0.00 | 0.00 | 0.00 | 69 | 1019.0 |
| 20260902061901 | 72 | 40 | 11.0 | 0.0 | 0.00 | 0.00 | 0.00 | 69 | 1019.0 |
| 20260902060400 | 72 | 40 | 11.0 | 0.0 | 0.00 | 0.00 | 0.00 | 69 | 1019.0 |
| 20260902054856 | 0 | 0.0 | 0.0 | 0.00 | 0.00 | 0.00 | |||
| 20260902053400 | 0 | 0.0 | 0.0 | 0.00 | 0.00 | 0.00 | |||
| 20260902051857 | 0 | 0.0 | 0.0 | 0.00 | 0.00 | 0.00 | |||
| 20260902050401 | 0 | 0.0 | 0.0 | 0.00 | 0.00 | 0.00 | |||
| 20260902044857 | 61 | 60 | 6.0 | 0.0 | 0.00 | 0.00 | 0.00 | 88 | 1018.0 |
| 20260902043357 | 61 | 60 | 6.0 | 0.0 | 0.00 | 0.00 | 0.00 | 88 | 1018.0 |
| 20260902041859 | 61 | 60 | 6.0 | 0.0 | 0.00 | 0.00 | 0.00 | 88 | 1018.0 |
| 20260902040404 | 61 | 60 | 6.0 | 0.0 | 0.00 | 0.00 | 0.00 | 88 | 1018.0 |
| 20260902034857 | 61 | 3.0 | 0.0 | 0.00 | 0.00 | 0.00 | 88 | 1018.0 | |
| 20260902033358 | 61 | 3.0 | 0.0 | 0.00 | 0.00 | 0.00 | 88 | 1018.0 | |
| 20260902031856 | 61 | 3.0 | 0.0 | 0.00 | 0.00 | 0.00 | 88 | 1018.0 | |
| 20260902030359 | 61 | 3.0 | 0.0 | 0.00 | 0.00 | 0.00 | 88 | 1018.0 | |
| 20260902024857 | 63 | 3.0 | 0.0 | 0.00 | 0.00 | 0.00 | 83 | 1018.0 | |
| 20260902023356 | 63 | 3.0 | 0.0 | 0.00 | 0.00 | 0.00 | 83 | 1018.0 | |
| 20260902021901 | 63 | 3.0 | 0.0 | 0.00 | 0.00 | 0.00 | 83 | 1018.0 | |
| 20260902020400 | 63 | 3.0 | 0.0 | 0.00 | 0.00 | 0.00 | 83 | 1018.0 | |
| 20260902014859 | 64 | 3.0 | 0.0 | 0.00 | 0.00 | 0.00 | 78 | 1018.0 | |
| 20260902013359 | 64 | 3.0 | 0.0 | 0.00 | 0.00 | 0.00 | 78 | 1018.0 | |
| 20260902011856 | 64 | 3.0 | 0.0 | 0.00 | 0.00 | 0.00 | 78 | 1018.0 | |
| 20260902010359 | 64 | 3.0 | 0.0 | 0.00 | 0.00 | 0.00 | 78 | 1018.0 | |
| 20260902004859 | 64 | 3.0 | 0.0 | 0.00 | 0.00 | 0.00 | 78 | 1018.0 | |
| 20260902003359 | 64 | 3.0 | 0.0 | 0.00 | 0.00 | 0.00 | 78 | 1017.0 | |
| 20260902001857 | 64 | 3.0 | 0.0 | 0.00 | 0.00 | 0.00 | 78 | 1017.0 | |
| 20260902000407 | 64 | 3.0 | 0.0 | 0.00 | 0.00 | 0.00 | 78 | 1017.0 | |
| 20260901234901 | 0 | 0.0 | 0.0 | 0.00 | 0.00 | 0.00 | |||
| 20260901233400 | 0 | 0.0 | 0.0 | 0.00 | 0.00 | 0.00 | |||
| 20260901231900 | 0 | 0.0 | 0.0 | 0.00 | 0.00 | 0.00 | |||
| 20260901230416 | 0 | 0.0 | 0.0 | 0.00 | 0.00 | 0.00 | |||
| 20260901224900 | 66 | 3.0 | 0.0 | 0.00 | 0.00 | 0.00 | 88 | 1017.0 | |
| 20260901223400 | 66 | 3.0 | 0.0 | 0.00 | 0.00 | 0.00 | 88 | 1017.0 | |
| 20260901221859 | 66 | 3.0 | 0.0 | 0.00 | 0.00 | 0.00 | 88 | 1017.0 | |
| 20260901220359 | 66 | 3.0 | 0.0 | 0.00 | 0.00 | 0.00 | 88 | 1017.0 | |
| 20260901214901 | 66 | 3.0 | 0.0 | 0.00 | 0.00 | 0.00 | 88 | 1017.0 | |
| 20260901213513 | 0 | 0.0 | 0.0 | 0.00 | 0.00 | 0.00 | |||
| 20260901211900 | 68 | 130 | 6.0 | 0.0 | 0.00 | 0.00 | 0.00 | 83 | 1016.0 |
| 20260901210429 | 68 | 130 | 6.0 | 0.0 | 0.00 | 0.00 | 0.00 | 83 | 1016.0 |
| 20260901204901 | 70 | 120 | 9.0 | 0.0 | 0.00 | 0.00 | 0.00 | 73 | 1016.0 |
| 20260901203431 | 70 | 120 | 9.0 | 0.0 | 0.00 | 0.00 | 0.00 | 73 | 1016.0 |
| 20260901201900 | 70 | 120 | 9.0 | 0.0 | 0.00 | 0.00 | 0.00 | 73 | 1016.0 |
| 20260901200359 | 70 | 120 | 9.0 | 0.0 | 0.00 | 0.00 | 0.00 | 73 | 1016.0 |
| 20260901195022 | 0 | 0.0 | 0.0 | 0.00 | 0.00 | 0.00 | |||
| 20260901193422 | 73 | 120 | 11.0 | 0.0 | 0.00 | 0.00 | 0.00 | 61 | 1016.0 |